Time,TemperatureF,DewpointF,PressureIn,WindDirection,WindDirectionDegrees,WindSpeedMPH,WindSpeedGustMPH,Humidity,HourlyPrecipIn,Conditions,Clouds,dailyrainin,SoftwareType,DateUTC
2013-02-17 00:02:00,12.0,9.0,30.09,WSW,240,0.0,1.0,89,0.00,,,0.00,,2013-02-17 05:02:00,
2013-02-17 00:12:00,12.0,9.0,30.09,WSW,240,0.0,1.0,89,0.00,,,0.00,,2013-02-17 05:12:00,
2013-02-17 00:22:00,13.0,10.0,30.09,West,260,0.0,2.0,89,0.00,,,0.00,,2013-02-17 05:22:00,
2013-02-17 00:33:00,14.0,11.0,30.09,West,266,1.0,5.0,86,0.00,,,0.00,,2013-02-17 05:33:00,
2013-02-17 00:42:00,14.0,11.0,30.09,West,266,1.0,5.0,86,0.00,,,0.00,,2013-02-17 05:42:00,
2013-02-17 00:52:00,14.0,10.0,30.09,WSW,243,0.0,4.0,84,0.00,,,0.00,,2013-02-17 05:52:00,
2013-02-17 01:02:00,14.0,10.0,30.09,SW,223,1.0,3.0,85,0.00,,,0.00,,2013-02-17 06:02:00,
2013-02-17 01:11:00,14.0,10.0,30.09,SW,223,1.0,3.0,85,0.00,,,0.00,,2013-02-17 06:11:00,
2013-02-17 01:21:00,14.0,10.0,30.09,WSW,252,2.0,4.0,85,0.00,,,0.00,,2013-02-17 06:21:00,
2013-02-17 01:32:00,15.0,12.0,30.09,WSW,244,1.0,3.0,86,0.00,,,0.00,,2013-02-17 06:32:00,
2013-02-17 01:42:00,15.0,12.0,30.09,WSW,244,1.0,3.0,86,0.00,,,0.00,,2013-02-17 06:42:00,
2013-02-17 01:51:00,15.0,12.0,30.09,West,263,2.0,5.0,86,0.00,,,0.00,,2013-02-17 06:51:00,
2013-02-17 02:01:00,15.0,12.0,30.09,WSW,237,2.0,6.0,87,0.00,,,0.00,,2013-02-17 07:01:00,
2013-02-17 02:11:00,15.0,12.0,30.09,WSW,237,2.0,6.0,87,0.00,,,0.00,,2013-02-17 07:11:00,
2013-02-17 02:21:00,15.0,12.0,30.09,WSW,257,1.0,3.0,88,0.00,,,0.00,,2013-02-17 07:21:00,
2013-02-17 02:32:00,16.0,13.0,30.09,West,276,0.0,3.0,89,0.00,,,0.00,,2013-02-17 07:32:00,
2013-02-17 02:42:00,16.0,13.0,30.09,West,276,0.0,3.0,89,0.00,,,0.00,,2013-02-17 07:42:00,
2013-02-17 02:51:00,16.0,13.0,30.09,West,281,1.0,4.0,89,0.00,,,0.00,,2013-02-17 07:51:00,
2013-02-17 03:01:00,16.0,13.0,30.09,SSW,204,0.0,4.0,88,0.00,,,0.00,,2013-02-17 08:01:00,
2013-02-17 03:11:00,16.0,13.0,30.09,SSW,204,0.0,4.0,88,0.00,,,0.00,,2013-02-17 08:11:00,
2013-02-17 03:21:00,16.0,13.0,30.09,NW,315,0.0,2.0,88,0.00,,,0.00,,2013-02-17 08:21:00,
2013-02-17 03:32:00,15.0,12.0,30.09,West,259,0.0,0.0,88,0.00,,,0.00,,2013-02-17 08:32:00,
2013-02-17 03:42:00,15.0,12.0,30.09,West,259,0.0,0.0,88,0.00,,,0.00,,2013-02-17 08:42:00,
2013-02-17 03:52:00,14.0,11.0,30.09,West,259,0.0,1.0,88,0.00,,,0.00,,2013-02-17 08:52:00,
2013-02-17 04:02:00,14.0,11.0,30.09,SW,234,0.0,3.0,89,0.00,,,0.00,,2013-02-17 09:02:00,
2013-02-17 04:11:00,14.0,11.0,30.09,SW,234,0.0,3.0,89,0.00,,,0.00,,2013-02-17 09:11:00,
2013-02-17 04:21:00,14.0,12.0,30.09,SW,234,0.0,1.0,90,0.00,,,0.00,,2013-02-17 09:21:00,
2013-02-17 04:32:00,13.0,10.0,30.10,SW,234,0.0,1.0,89,0.00,,,0.00,,2013-02-17 09:32:00,
2013-02-17 04:42:00,13.0,10.0,30.10,SW,234,0.0,1.0,89,0.00,,,0.00,,2013-02-17 09:42:00,
2013-02-17 04:51:00,13.0,11.0,30.10,SW,234,0.0,1.0,90,0.00,,,0.00,,2013-02-17 09:51:00,
2013-02-17 05:01:00,13.0,11.0,30.10,SW,234,0.0,2.0,91,0.00,,,0.00,,2013-02-17 10:01:00,
2013-02-17 05:11:00,13.0,11.0,30.10,SW,234,0.0,2.0,91,0.00,,,0.00,,2013-02-17 10:11:00,
2013-02-17 05:21:00,14.0,12.0,30.10,SW,234,1.0,2.0,91,0.00,,,0.00,,2013-02-17 10:21:00,
2013-02-17 05:32:00,14.0,12.0,30.11,SW,234,0.0,2.0,91,0.00,,,0.00,,2013-02-17 10:32:00,
2013-02-17 05:42:00,14.0,12.0,30.11,SW,234,0.0,2.0,91,0.00,,,0.00,,2013-02-17 10:42:00,
2013-02-17 05:52:00,14.0,12.0,30.11,SW,234,0.0,1.0,91,0.00,,,0.00,,2013-02-17 10:52:00,
2013-02-17 06:01:00,15.0,13.0,30.11,WSW,250,0.0,1.0,90,0.00,,,0.00,,2013-02-17 11:01:00,
2013-02-17 06:11:00,15.0,13.0,30.11,WSW,250,0.0,1.0,90,0.00,,,0.00,,2013-02-17 11:11:00,
2013-02-17 06:22:00,15.0,13.0,30.13,WSW,250,0.0,1.0,91,0.00,,,0.00,,2013-02-17 11:22:00,
2013-02-17 06:32:00,15.0,13.0,30.12,WSW,252,1.0,3.0,91,0.00,,,0.00,,2013-02-17 11:32:00,
2013-02-17 06:42:00,15.0,13.0,30.12,WSW,252,1.0,3.0,91,0.00,,,0.00,,2013-02-17 11:42:00,
2013-02-17 06:53:00,15.0,13.0,30.13,WSW,252,1.0,2.0,90,0.00,,,0.00,,2013-02-17 11:53:00,
2013-02-17 07:03:00,15.0,13.0,30.13,West,263,0.0,2.0,90,0.00,,,0.00,,2013-02-17 12:03:00,
2013-02-17 07:11:00,15.0,13.0,30.13,West,263,0.0,2.0,90,0.00,,,0.00,,2013-02-17 12:11:00,
2013-02-17 07:22:00,15.0,13.0,30.14,West,263,0.0,0.0,90,0.00,,,0.00,,2013-02-17 12:22:00,
2013-02-17 07:32:00,15.0,13.0,30.14,West,263,0.0,0.0,90,0.00,,,0.00,,2013-02-17 12:32:00,
2013-02-17 07:42:00,15.0,13.0,30.14,West,263,0.0,0.0,90,0.00,,,0.00,,2013-02-17 12:42:00,
2013-02-17 07:52:00,15.0,13.0,30.14,West,263,0.0,1.0,90,0.00,,,0.00,,2013-02-17 12:52:00,
2013-02-17 08:02:00,15.0,13.0,30.15,West,263,0.0,1.0,90,0.00,,,0.00,,2013-02-17 13:02:00,
2013-02-17 08:12:00,15.0,13.0,30.15,West,263,0.0,1.0,90,0.00,,,0.00,,2013-02-17 13:12:00,
2013-02-17 08:22:00,15.0,13.0,30.15,SSW,207,1.0,3.0,90,0.00,,,0.00,,2013-02-17 13:22:00,
2013-02-17 08:32:00,15.0,13.0,30.16,SSW,207,1.0,1.0,91,0.00,,,0.00,,2013-02-17 13:32:00,
2013-02-17 08:42:00,15.0,13.0,30.16,SSW,207,1.0,1.0,91,0.00,,,0.00,,2013-02-17 13:42:00,
2013-02-17 08:52:00,15.0,13.0,30.16,SSW,207,1.0,1.0,91,0.00,,,0.00,,2013-02-17 13:52:00,
2013-02-17 09:01:00,16.0,14.0,30.17,SW,224,1.0,3.0,91,0.00,,,0.00,,2013-02-17 14:01:00,
2013-02-17 09:11:00,16.0,14.0,30.17,SW,224,1.0,3.0,91,0.00,,,0.00,,2013-02-17 14:11:00,
2013-02-17 09:22:00,17.0,15.0,30.17,SW,236,1.0,4.0,90,0.00,,,0.00,,2013-02-17 14:22:00,
2013-02-17 09:32:00,17.0,14.0,30.17,SW,229,1.0,4.0,89,0.00,,,0.00,,2013-02-17 14:32:00,
2013-02-17 09:42:00,17.0,14.0,30.17,SW,229,1.0,4.0,89,0.00,,,0.00,,2013-02-17 14:42:00,
2013-02-17 09:53:00,18.0,15.0,30.17,WSW,241,2.0,4.0,89,0.00,,,0.00,,2013-02-17 14:53:00,
2013-02-17 10:02:00,18.0,15.0,30.17,SSW,196,2.0,3.0,89,0.00,,,0.00,,2013-02-17 15:02:00,
2013-02-17 10:11:00,18.0,15.0,30.17,SSW,196,2.0,3.0,89,0.00,,,0.00,,2013-02-17 15:11:00,
2013-02-17 10:21:00,18.0,15.0,30.17,SSW,196,2.0,3.0,89,0.00,,,0.00,,2013-02-17 15:21:00,
2013-02-17 10:32:00,19.0,16.0,30.18,SW,225,3.0,6.0,86,0.00,,,0.00,,2013-02-17 15:32:00,
2013-02-17 10:42:00,19.0,16.0,30.18,SW,225,3.0,6.0,86,0.00,,,0.00,,2013-02-17 15:42:00,
2013-02-17 10:52:00,19.0,15.0,30.19,SSW,211,4.0,6.0,83,0.00,,,0.00,,2013-02-17 15:52:00,
2013-02-17 11:01:00,20.0,15.0,30.19,WSW,243,4.0,7.0,82,0.00,,,0.00,,2013-02-17 16:01:00,
2013-02-17 11:12:00,20.0,15.0,30.19,WSW,243,4.0,7.0,82,0.00,,,0.00,,2013-02-17 16:12:00,
2013-02-17 11:21:00,21.0,15.0,30.19,WSW,248,2.0,4.0,77,0.00,,,0.00,,2013-02-17 16:21:00,
2013-02-17 11:32:00,23.0,15.0,30.19,South,185,2.0,4.0,72,0.00,,,0.00,,2013-02-17 16:32:00,
2013-02-17 11:42:00,23.0,15.0,30.19,South,185,2.0,4.0,72,0.00,,,0.00,,2013-02-17 16:42:00,
2013-02-17 11:52:00,23.0,13.0,30.19,SW,219,3.0,5.0,65,0.00,,,0.00,,2013-02-17 16:52:00,
2013-02-17 12:02:00,24.0,12.0,30.19,SW,229,3.0,6.0,60,0.00,,,0.00,,2013-02-17 17:02:00,
2013-02-17 12:11:00,24.0,12.0,30.19,SW,229,3.0,6.0,60,0.00,,,0.00,,2013-02-17 17:11:00,
2013-02-17 12:21:00,24.0,11.0,30.19,WSW,240,2.0,8.0,57,0.00,,,0.00,,2013-02-17 17:21:00,
2013-02-17 12:32:00,24.0,14.0,30.19,West,275,3.0,8.0,65,0.00,,,0.00,,2013-02-17 17:32:00,
2013-02-17 12:42:00,24.0,14.0,30.19,West,275,3.0,8.0,65,0.00,,,0.00,,2013-02-17 17:42:00,
2013-02-17 12:52:00,25.0,13.0,30.18,SSW,207,6.0,11.0,60,0.00,,,0.00,,2013-02-17 17:52:00,
2013-02-17 13:02:00,26.0,15.0,30.16,SSW,196,1.0,6.0,62,0.00,,,0.00,,2013-02-17 18:02:00,
2013-02-17 13:11:00,26.0,15.0,30.16,SSW,196,1.0,6.0,62,0.00,,,0.00,,2013-02-17 18:11:00,
2013-02-17 13:22:00,27.0,15.0,30.16,SW,225,6.0,8.0,59,0.00,,,0.00,,2013-02-17 18:22:00,
2013-02-17 13:33:00,27.0,14.0,30.16,SW,228,1.0,7.0,57,0.00,,,0.00,,2013-02-17 18:33:00,
2013-02-17 13:42:00,27.0,14.0,30.16,SW,228,1.0,7.0,57,0.00,,,0.00,,2013-02-17 18:42:00,
2013-02-17 13:52:00,27.0,13.0,30.16,WSW,253,3.0,9.0,55,0.00,,,0.00,,2013-02-17 18:52:00,
2013-02-17 14:02:00,26.0,13.0,30.16,West,277,1.0,6.0,58,0.00,,,0.00,,2013-02-17 19:02:00,
2013-02-17 14:11:00,26.0,13.0,30.16,West,277,1.0,6.0,58,0.00,,,0.00,,2013-02-17 19:11:00,
2013-02-17 14:22:00,26.0,13.0,30.16,SW,224,3.0,8.0,57,0.00,,,0.00,,2013-02-17 19:22:00,
2013-02-17 14:32:00,28.0,13.0,30.16,WNW,282,4.0,7.0,52,0.00,,,0.00,,2013-02-17 19:32:00,
2013-02-17 14:42:00,28.0,13.0,30.16,WNW,282,4.0,7.0,52,0.00,,,0.00,,2013-02-17 19:42:00,
2013-02-17 14:52:00,26.0,12.0,30.16,WSW,240,5.0,7.0,55,0.00,,,0.00,,2013-02-17 19:52:00,
2013-02-17 15:02:00,27.0,12.0,30.16,SSW,209,5.0,8.0,52,0.00,,,0.00,,2013-02-17 20:02:00,
2013-02-17 15:11:00,27.0,12.0,30.16,SSW,209,5.0,8.0,52,0.00,,,0.00,,2013-02-17 20:11:00,
2013-02-17 15:22:00,28.0,13.0,30.16,West,263,4.0,13.0,52,0.00,,,0.00,,2013-02-17 20:22:00,
2013-02-17 15:32:00,29.0,13.0,30.15,West,259,3.0,7.0,51,0.00,,,0.00,,2013-02-17 20:32:00,
2013-02-17 15:42:00,29.0,13.0,30.15,West,259,3.0,7.0,51,0.00,,,0.00,,2013-02-17 20:42:00,
2013-02-17 15:52:00,28.0,13.0,30.15,West,277,2.0,7.0,53,0.00,,,0.00,,2013-02-17 20:52:00,
2013-02-17 16:02:00,29.0,13.0,30.14,SW,234,5.0,8.0,50,0.00,,,0.00,,2013-02-17 21:02:00,
2013-02-17 16:11:00,29.0,13.0,30.14,SW,234,5.0,8.0,50,0.00,,,0.00,,2013-02-17 21:11:00,
2013-02-17 16:21:00,29.0,13.0,30.14,SW,227,4.0,7.0,51,0.00,,,0.00,,2013-02-17 21:21:00,
2013-02-17 16:32:00,30.0,14.0,30.14,SW,222,4.0,15.0,50,0.00,,,0.00,,2013-02-17 21:32:00,
2013-02-17 16:42:00,30.0,14.0,30.14,SW,222,4.0,15.0,50,0.00,,,0.00,,2013-02-17 21:42:00,
2013-02-17 16:52:00,29.0,12.0,30.13,SSW,203,4.0,12.0,49,0.00,,,0.00,,2013-02-17 21:52:00,
2013-02-17 17:01:00,30.0,13.0,30.14,SSW,208,6.0,9.0,49,0.00,,,0.00,,2013-02-17 22:01:00,
2013-02-17 17:12:00,30.0,13.0,30.14,SSW,208,6.0,9.0,49,0.00,,,0.00,,2013-02-17 22:12:00,
2013-02-17 17:22:00,29.0,12.0,30.13,SSW,202,4.0,10.0,49,0.00,,,0.00,,2013-02-17 22:22:00,
2013-02-17 17:32:00,28.0,13.0,30.13,SSW,205,4.0,10.0,52,0.00,,,0.00,,2013-02-17 22:32:00,
2013-02-17 17:42:00,28.0,13.0,30.13,SSW,205,4.0,10.0,52,0.00,,,0.00,,2013-02-17 22:42:00,
2013-02-17 17:52:00,28.0,14.0,30.13,SSW,209,5.0,9.0,54,0.00,,,0.00,,2013-02-17 22:52:00,
2013-02-17 18:02:00,28.0,13.0,30.13,SW,223,4.0,8.0,53,0.00,,,0.00,,2013-02-17 23:02:00,
2013-02-17 18:11:00,28.0,13.0,30.13,SW,223,4.0,8.0,53,0.00,,,0.00,,2013-02-17 23:11:00,
2013-02-17 18:21:00,27.0,12.0,30.13,SW,217,6.0,8.0,53,0.00,,,0.00,,2013-02-17 23:21:00,
2013-02-17 18:32:00,26.0,12.0,30.13,SW,223,5.0,8.0,55,0.00,,,0.00,,2013-02-17 23:32:00,
2013-02-17 18:42:00,26.0,12.0,30.13,SW,223,5.0,8.0,55,0.00,,,0.00,,2013-02-17 23:42:00,
2013-02-17 18:52:00,26.0,13.0,30.13,SW,219,3.0,5.0,57,0.00,,,0.00,,2013-02-17 23:52:00,
2013-02-17 19:02:00,25.0,12.0,30.13,SSW,204,3.0,5.0,57,0.00,,,0.00,,2013-02-18 00:02:00,
2013-02-17 19:12:00,25.0,12.0,30.13,SSW,204,3.0,5.0,57,0.00,,,0.00,,2013-02-18 00:12:00,
2013-02-17 19:22:00,25.0,13.0,30.13,SSW,213,3.0,4.0,59,0.00,,,0.00,,2013-02-18 00:22:00,
2013-02-17 19:32:00,24.0,13.0,30.12,SSW,192,1.0,3.0,61,0.00,,,0.00,,2013-02-18 00:32:00,
2013-02-17 19:42:00,24.0,13.0,30.12,SSW,192,1.0,3.0,61,0.00,,,0.00,,2013-02-18 00:42:00,
2013-02-17 19:52:00,24.0,13.0,30.12,South,186,1.0,2.0,62,0.00,,,0.00,,2013-02-18 00:52:00,
2013-02-17 20:01:00,24.0,14.0,30.12,SSE,155,1.0,2.0,64,0.00,,,0.00,,2013-02-18 01:01:00,
2013-02-17 20:12:00,24.0,14.0,30.12,SSE,155,1.0,2.0,64,0.00,,,0.00,,2013-02-18 01:12:00,
2013-02-17 20:21:00,24.0,13.0,30.12,South,176,1.0,3.0,63,0.00,,,0.00,,2013-02-18 01:21:00,
2013-02-17 20:32:00,24.0,14.0,30.12,South,173,0.0,3.0,64,0.00,,,0.00,,2013-02-18 01:32:00,
2013-02-17 20:42:00,24.0,14.0,30.12,South,173,0.0,3.0,64,0.00,,,0.00,,2013-02-18 01:42:00,
2013-02-17 20:51:00,23.0,13.0,30.13,South,175,0.0,2.0,66,0.00,,,0.00,,2013-02-18 01:51:00,
2013-02-17 21:02:00,23.0,14.0,30.13,SE,144,1.0,3.0,67,0.00,,,0.00,,2013-02-18 02:02:00,
2013-02-17 21:11:00,23.0,14.0,30.13,SE,144,1.0,3.0,67,0.00,,,0.00,,2013-02-18 02:11:00,
2013-02-17 21:22:00,23.0,14.0,30.12,South,172,1.0,3.0,69,0.00,,,0.00,,2013-02-18 02:22:00,
2013-02-17 21:32:00,23.0,15.0,30.12,SSE,159,1.0,3.0,70,0.00,,,0.00,,2013-02-18 02:32:00,
2013-02-17 21:42:00,23.0,15.0,30.12,SSE,159,1.0,3.0,70,0.00,,,0.00,,2013-02-18 02:42:00,
2013-02-17 21:52:00,23.0,14.0,30.12,ESE,109,2.0,4.0,68,0.00,,,0.00,,2013-02-18 02:52:00,
2013-02-17 22:02:00,23.0,14.0,30.12,South,189,2.0,4.0,67,0.00,,,0.00,,2013-02-18 03:02:00,
2013-02-17 22:11:00,23.0,14.0,30.12,South,189,2.0,4.0,67,0.00,,,0.00,,2013-02-18 03:11:00,
2013-02-17 22:22:00,23.0,14.0,30.13,South,187,3.0,5.0,68,0.00,,,0.00,,2013-02-18 03:22:00,
2013-02-17 22:32:00,23.0,14.0,30.12,South,173,2.0,5.0,69,0.00,,,0.00,,2013-02-18 03:32:00,
2013-02-17 22:42:00,23.0,14.0,30.12,South,173,2.0,5.0,69,0.00,,,0.00,,2013-02-18 03:42:00,
2013-02-17 22:51:00,23.0,15.0,30.12,South,174,2.0,6.0,70,0.00,,,0.00,,2013-02-18 03:51:00,
2013-02-17 23:01:00,23.0,15.0,30.11,South,169,3.0,6.0,70,0.00,,,0.00,,2013-02-18 04:01:00,
2013-02-17 23:11:00,23.0,15.0,30.11,South,169,3.0,6.0,70,0.00,,,0.00,,2013-02-18 04:11:00,
2013-02-17 23:21:00,23.0,14.0,30.11,SSE,158,3.0,7.0,69,0.00,,,0.00,,2013-02-18 04:21:00,
2013-02-17 23:32:00,24.0,15.0,30.10,SSW,197,4.0,9.0,68,0.00,,,0.00,,2013-02-18 04:32:00,
2013-02-17 23:42:00,24.0,15.0,30.10,SSW,197,4.0,9.0,68,0.00,,,0.00,,2013-02-18 04:42:00,
2013-02-17 23:52:00,24.0,15.0,30.11,South,186,4.0,8.0,68,0.00,,,0.00,,2013-02-18 04:52:00,